| time (UTC) | temp F | wind direction | speed knots | gust knots | rain 1hr in | rain 24hr in | rain mn in | humidity % | barometer mb |
| 20260510072541 | 69 | 153 | 0.0 | 0.0 | 0.00 | 0.00 | 0.00 | 94 | 1012.3 |
| 20260510072037 | 70 | 153 | 0.0 | 0.0 | 0.00 | 0.00 | 0.00 | 94 | 1012.7 |
| 20260510071533 | 70 | 153 | 0.0 | 0.0 | 0.00 | 0.00 | 0.00 | 94 | 1012.4 |
| 20260510071032 | 70 | 150 | 0.0 | 0.0 | 0.00 | 0.00 | 0.00 | 94 | 1012.3 |
| 20260510070528 | 70 | 150 | 0.0 | 0.0 | 0.00 | 0.00 | 0.00 | 93 | 1012.4 |
| 20260510070025 | 70 | 150 | 0.0 | 0.0 | 0.00 | 0.00 | 0.00 | 93 | 1012.3 |
| 20260510065521 | 70 | 155 | 0.0 | 0.0 | 0.00 | 0.00 | 0.00 | 93 | 1012.5 |
| 20260510065017 | 70 | 147 | 0.0 | 0.0 | 0.00 | 0.00 | 0.00 | 93 | 1012.4 |
| 20260510064514 | 70 | 147 | 0.0 | 0.0 | 0.00 | 0.00 | 0.00 | 92 | 1012.2 |
| 20260510064011 | 71 | 147 | 0.0 | 0.0 | 0.00 | 0.00 | 0.00 | 92 | 1012.2 |
| 20260510063507 | 70 | 149 | 0.0 | 0.0 | 0.00 | 0.00 | 0.00 | 92 | 1012.5 |
| 20260510063005 | 71 | 149 | 0.0 | 0.0 | 0.00 | 0.00 | 0.00 | 91 | 1012.3 |
| 20260510062500 | 71 | 149 | 0.0 | 0.0 | 0.00 | 0.00 | 0.00 | 91 | 1012.3 |
| 20260510061955 | 71 | 149 | 0.0 | 0.0 | 0.00 | 0.00 | 0.00 | 91 | 1012.4 |
| 20260510061453 | 71 | 149 | 0.0 | 0.0 | 0.00 | 0.00 | 0.00 | 90 | 1012.4 |
| 20260510060949 | 71 | 149 | 0.0 | 0.0 | 0.00 | 0.00 | 0.00 | 90 | 1012.2 |
| 20260510060446 | 72 | 149 | 0.0 | 0.0 | 0.00 | 0.00 | 0.00 | 90 | 1012.3 |
| 20260510055942 | 72 | 150 | 0.0 | 0.0 | 0.00 | 0.00 | 0.00 | 90 | 1012.3 |
| 20260510055438 | 72 | 149 | 0.0 | 0.0 | 0.00 | 0.00 | 0.00 | 89 | 1012.3 |
| 20260510054936 | 72 | 152 | 0.0 | 0.0 | 0.00 | 0.00 | 0.00 | 89 | 1012.2 |
| 20260510054431 | 72 | 151 | 0.0 | 0.0 | 0.00 | 0.00 | 0.00 | 89 | 1012.3 |
| 20260510053927 | 72 | 150 | 0.0 | 0.0 | 0.00 | 0.00 | 0.00 | 89 | 1012.1 |
| 20260510053422 | 73 | 150 | 0.0 | 0.0 | 0.00 | 0.00 | 0.00 | 89 | 1012.3 |
| 20260510052919 | 73 | 153 | 0.0 | 0.0 | 0.00 | 0.00 | 0.00 | 88 | 1012.2 |
| 20260510052414 | 73 | 153 | 0.0 | 0.0 | 0.00 | 0.00 | 0.00 | 88 | 1012.4 |
| 20260510051911 | 73 | 153 | 0.0 | 0.0 | 0.00 | 0.00 | 0.00 | 88 | 1012.4 |
| 20260510051408 | 73 | 147 | 0.0 | 0.0 | 0.00 | 0.00 | 0.00 | 89 | 1012.5 |
| 20260510050904 | 73 | 155 | 0.0 | 0.0 | 0.00 | 0.00 | 0.00 | 90 | 1012.1 |
| 20260510050401 | 73 | 157 | 0.0 | 0.0 | 0.00 | 0.00 | 0.00 | 91 | 1012.1 |
| 20260510045858 | 73 | 158 | 0.0 | 0.0 | 0.00 | 0.05 | 0.05 | 92 | 1012.2 |
| 20260510045355 | 73 | 158 | 0.0 | 0.0 | 0.00 | 0.05 | 0.05 | 92 | 1012.0 |
| 20260510044852 | 72 | 159 | 0.0 | 0.0 | 0.00 | 0.05 | 0.05 | 93 | 1012.2 |
| 20260510044348 | 72 | 159 | 0.0 | 0.0 | 0.00 | 0.05 | 0.05 | 93 | 1012.1 |
| 20260510043845 | 72 | 159 | 0.0 | 0.0 | 0.00 | 0.05 | 0.05 | 93 | 1012.1 |
| 20260510043341 | 72 | 159 | 0.0 | 0.0 | 0.00 | 0.05 | 0.05 | 92 | 1012.2 |
| 20260510042839 | 73 | 159 | 0.0 | 0.0 | 0.00 | 0.05 | 0.05 | 92 | 1011.9 |
| 20260510042335 | 73 | 159 | 0.0 | 0.0 | 0.00 | 0.05 | 0.05 | 92 | 1012.1 |
| 20260510041831 | 73 | 159 | 0.0 | 0.0 | 0.00 | 0.05 | 0.05 | 92 | 1012.2 |
| 20260510041329 | 73 | 159 | 0.0 | 0.0 | 0.00 | 0.05 | 0.05 | 92 | 1012.0 |
| 20260510040826 | 73 | 159 | 0.0 | 0.0 | 0.00 | 0.05 | 0.05 | 91 | 1012.1 |
| 20260510040322 | 74 | 159 | 0.0 | 0.0 | 0.00 | 0.05 | 0.05 | 91 | 1012.1 |
| 20260510035818 | 74 | 159 | 0.0 | 0.0 | 0.00 | 0.05 | 0.05 | 91 | 1012.0 |
| 20260510035314 | 74 | 159 | 0.0 | 0.0 | 0.00 | 0.05 | 0.05 | 91 | 1012.0 |
| 20260510034810 | 74 | 159 | 0.0 | 0.0 | 0.00 | 0.05 | 0.05 | 91 | 1012.0 |
| 20260510034308 | 74 | 159 | 0.0 | 0.0 | 0.00 | 0.05 | 0.05 | 91 | 1011.8 |
| 20260510033804 | 75 | 159 | 0.0 | 0.0 | 0.00 | 0.05 | 0.05 | 91 | 1011.8 |
| 20260510033301 | 75 | 159 | 0.0 | 0.0 | 0.00 | 0.05 | 0.05 | 90 | 1012.0 |
| 20260510032757 | 75 | 159 | 0.0 | 0.0 | 0.00 | 0.05 | 0.05 | 90 | 1011.7 |
| 20260510032254 | 75 | 159 | 0.0 | 0.0 | 0.00 | 0.05 | 0.05 | 90 | 1011.8 |
| 20260510031749 | 76 | 159 | 0.0 | 0.0 | 0.00 | 0.05 | 0.05 | 89 | 1011.7 |
| 20260510031245 | 76 | 159 | 0.0 | 0.0 | 0.00 | 0.05 | 0.05 | 88 | 1011.6 |
| 20260510030744 | 76 | 159 | 0.0 | 0.0 | 0.00 | 0.05 | 0.05 | 88 | 1011.5 |
| 20260510030237 | 77 | 159 | 0.0 | 0.0 | 0.00 | 0.05 | 0.05 | 88 | 1011.6 |
| 20260510025734 | 77 | 158 | 0.0 | 0.0 | 0.00 | 0.05 | 0.05 | 88 | 1011.4 |
| 20260510025232 | 77 | 158 | 0.0 | 0.0 | 0.00 | 0.05 | 0.05 | 88 | 1011.3 |
| 20260510024728 | 77 | 158 | 0.0 | 0.0 | 0.00 | 0.05 | 0.05 | 87 | 1011.1 |
| 20260510024225 | 78 | 158 | 0.0 | 0.0 | 0.00 | 0.05 | 0.05 | 87 | 1011.1 |
| 20260510023720 | 78 | 158 | 0.0 | 0.0 | 0.00 | 0.05 | 0.05 | 87 | 1011.1 |
| 20260510023218 | 78 | 155 | 0.0 | 0.0 | 0.00 | 0.05 | 0.05 | 87 | 1011.1 |
| 20260510022714 | 78 | 150 | 0.0 | 0.0 | 0.00 | 0.05 | 0.05 | 86 | 1011.1 |
| 20260510022214 | 78 | 148 | 0.0 | 0.0 | 0.00 | 0.05 | 0.05 | 86 | 1010.9 |
| 20260510021709 | 78 | 149 | 0.0 | 0.0 | 0.00 | 0.05 | 0.05 | 85 | 1011.0 |
| 20260510021207 | 79 | 149 | 0.0 | 0.0 | 0.00 | 0.05 | 0.05 | 85 | 1010.7 |
| 20260510020702 | 79 | 153 | 0.0 | 0.0 | 0.00 | 0.05 | 0.05 | 84 | 1010.7 |
| 20260510020202 | 79 | 153 | 0.0 | 0.0 | 0.00 | 0.05 | 0.05 | 84 | 1010.7 |
| 20260510015658 | 79 | 160 | 0.0 | 0.0 | 0.00 | 0.05 | 0.05 | 84 | 1010.8 |
| 20260510015155 | 79 | 161 | 0.0 | 0.0 | 0.00 | 0.05 | 0.05 | 84 | 1010.5 |
| 20260510014655 | 79 | 159 | 0.0 | 0.0 | 0.00 | 0.05 | 0.05 | 83 | 1010.7 |
| 20260510014153 | 79 | 158 | 0.0 | 0.0 | 0.00 | 0.05 | 0.05 | 83 | 1010.6 |
| 20260510013648 | 79 | 158 | 0.0 | 0.0 | 0.00 | 0.05 | 0.05 | 82 | 1010.6 |
| 20260510013144 | 80 | 158 | 0.0 | 0.0 | 0.00 | 0.05 | 0.05 | 81 | 1010.5 |
| 20260510012643 | 80 | 158 | 0.0 | 0.0 | 0.00 | 0.05 | 0.05 | 80 | 1010.7 |
| 20260510012140 | 81 | 158 | 0.0 | 0.0 | 0.00 | 0.05 | 0.05 | 79 | 1010.3 |
| 20260510011635 | 81 | 158 | 0.0 | 0.0 | 0.00 | 0.05 | 0.05 | 79 | 1010.3 |
| 20260510011131 | 81 | 158 | 0.0 | 0.0 | 0.00 | 0.05 | 0.05 | 78 | 1010.3 |
| 20260510010627 | 82 | 159 | 0.0 | 0.0 | 0.00 | 0.05 | 0.05 | 77 | 1010.1 |
| 20260510010124 | 82 | 158 | 0.0 | 0.0 | 0.00 | 0.05 | 0.05 | 76 | 1010.1 |
| 20260510005619 | 82 | 159 | 0.0 | 0.0 | 0.00 | 0.05 | 0.05 | 76 | 1010.3 |
| 20260510005117 | 83 | 150 | 0.0 | 0.0 | 0.00 | 0.05 | 0.05 | 75 | 1010.1 |
| 20260510004615 | 83 | 157 | 0.0 | 0.0 | 0.00 | 0.05 | 0.05 | 74 | 1009.8 |
| 20260510004113 | 83 | 153 | 0.0 | 0.0 | 0.00 | 0.05 | 0.05 | 72 | 1010.2 |
| 20260510003610 | 83 | 152 | 0.0 | 0.0 | 0.00 | 0.05 | 0.05 | 70 | 1010.1 |
| 20260510003105 | 84 | 152 | 0.0 | 0.0 | 0.00 | 0.05 | 0.05 | 69 | 1009.9 |
| 20260510002600 | 84 | 149 | 0.0 | 0.0 | 0.00 | 0.05 | 0.05 | 68 | 1009.9 |
| 20260510002057 | 84 | 162 | 0.0 | 0.0 | 0.00 | 0.05 | 0.05 | 67 | 1010.0 |
| 20260510001554 | 84 | 161 | 0.0 | 0.0 | 0.00 | 0.05 | 0.05 | 66 | 1010.0 |
| 20260510001054 | 84 | 139 | 0.0 | 0.0 | 0.00 | 0.05 | 0.05 | 66 | 1009.9 |
| 20260510000548 | 84 | 159 | 0.0 | 0.0 | 0.00 | 0.05 | 0.05 | 65 | 1009.7 |
| 20260510000046 | 85 | 152 | 0.0 | 0.0 | 0.00 | 0.05 | 0.05 | 64 | 1009.7 |
| 20260509235542 | 85 | 161 | 0.0 | 0.0 | 0.00 | 0.05 | 0.05 | 64 | 1009.8 |
| 20260509235038 | 85 | 151 | 0.9 | 1.7 | 0.00 | 0.05 | 0.05 | 63 | 1009.8 |
| 20260509234534 | 85 | 136 | 0.0 | 0.0 | 0.00 | 0.05 | 0.05 | 61 | 1009.5 |
| 20260509234033 | 85 | 153 | 0.0 | 0.0 | 0.00 | 0.05 | 0.05 | 59 | 1009.8 |
| 20260509233530 | 85 | 164 | 0.0 | 0.0 | 0.00 | 0.05 | 0.05 | 57 | 1009.9 |
| 20260509233027 | 85 | 166 | 0.0 | 0.0 | 0.00 | 0.05 | 0.05 | 56 | 1009.8 |
| 20260509232524 | 85 | 166 | 0.0 | 0.0 | 0.00 | 0.05 | 0.05 | 55 | 1009.5 |
| 20260509232020 | 85 | 166 | 0.0 | 0.0 | 0.00 | 0.05 | 0.05 | 56 | 1009.4 |
| 20260509231516 | 85 | 166 | 0.0 | 0.0 | 0.00 | 0.05 | 0.05 | 57 | 1009.3 |
| 20260509231015 | 86 | 166 | 0.0 | 0.0 | 0.00 | 0.05 | 0.05 | 59 | 1009.7 |
| 20260509230511 | 86 | 136 | 0.0 | 0.0 | 0.00 | 0.05 | 0.05 | 59 | 1009.3 |
| 20260509230008 | 86 | 151 | 0.0 | 0.0 | 0.00 | 0.05 | 0.05 | 63 | 1009.5 |
| 20260509225503 | 87 | 143 | 0.0 | 0.0 | 0.00 | 0.05 | 0.05 | 63 | 1009.7 |
| 20260509224959 | 87 | 152 | 0.0 | 0.0 | 0.00 | 0.05 | 0.05 | 62 | 1009.5 |
| 20260509224455 | 87 | 173 | 0.0 | 0.0 | 0.00 | 0.05 | 0.05 | 60 | 1009.4 |
| 20260509223952 | 88 | 157 | 0.9 | 1.7 | 0.00 | 0.05 | 0.05 | 61 | 1009.5 |
| 20260509223449 | 88 | 163 | 0.0 | 0.0 | 0.00 | 0.05 | 0.05 | 61 | 1009.3 |
| 20260509222946 | 88 | 163 | 0.0 | 0.0 | 0.00 | 0.05 | 0.05 | 60 | 1009.7 |
| 20260509222442 | 88 | 163 | 0.0 | 0.0 | 0.00 | 0.05 | 0.05 | 61 | 1009.1 |
| 20260509221938 | 87 | 163 | 0.0 | 0.0 | 0.00 | 0.05 | 0.05 | 60 | 1009.3 |
| 20260509221434 | 87 | 163 | 0.0 | 0.0 | 0.00 | 0.05 | 0.05 | 64 | 1009.3 |
| 20260509220930 | 86 | 166 | 0.0 | 0.0 | 0.00 | 0.05 | 0.05 | 64 | 1009.4 |
| 20260509220426 | 86 | 147 | 0.0 | 0.0 | 0.00 | 0.05 | 0.05 | 67 | 1009.2 |
| 20260509215922 | 85 | 146 | 0.0 | 0.0 | 0.00 | 0.05 | 0.05 | 69 | 1009.3 |
| 20260509215418 | 84 | 167 | 0.0 | 1.7 | 0.00 | 0.05 | 0.05 | 67 | 1009.3 |
| 20260509214916 | 84 | 147 | 0.0 | 0.0 | 0.00 | 0.05 | 0.05 | 70 | 1009.4 |
| 20260509214413 | 83 | 143 | 0.0 | 0.0 | 0.00 | 0.05 | 0.05 | 71 | 1009.5 |
| 20260509213910 | 82 | 146 | 0.0 | 0.0 | 0.00 | 0.05 | 0.05 | 71 | 1009.4 |
| 20260509213405 | 82 | 139 | 1.7 | 2.6 | 0.00 | 0.05 | 0.05 | 74 | 1009.3 |
| 20260509212903 | 82 | 164 | 2.6 | 4.3 | 0.00 | 0.05 | 0.05 | 74 | 1009.5 |
| 20260509212400 | 80 | 158 | 0.0 | 1.7 | 0.00 | 0.05 | 0.05 | 77 | 1009.5 |
| 20260509211856 | 78 | 175 | 2.6 | 4.3 | 0.00 | 0.05 | 0.05 | 78 | 1010.1 |
| 20260509211352 | 78 | 195 | 3.5 | 4.3 | 0.00 | 0.05 | 0.05 | 77 | 1010.3 |
| 20260509210849 | 77 | 162 | 2.6 | 2.6 | 0.00 | 0.05 | 0.05 | 77 | 1009.9 |
| 20260509210346 | 75 | 147 | 0.9 | 0.9 | 0.07 | 0.05 | 0.05 | 81 | 1010.4 |
| 20260509205846 | 75 | 164 | 0.9 | 1.7 | 0.14 | 0.05 | 0.05 | 79 | 1010.4 |
| 20260509205340 | 76 | 149 | 0.9 | 1.7 | 0.07 | 0.04 | 0.04 | 77 | 1010.4 |
| 20260509204837 | 77 | 188 | 0.9 | 1.7 | 0.00 | 0.03 | 0.03 | 70 | 1010.3 |
| 20260509204333 | 80 | 172 | 4.3 | 7.8 | 0.00 | 0.03 | 0.03 | 63 | 1010.3 |
| 20260509203830 | 81 | 131 | 2.6 | 4.3 | 0.00 | 0.03 | 0.03 | 60 | 1010.3 |
| 20260509203327 | 85 | 110 | 1.7 | 2.6 | 0.00 | 0.03 | 0.03 | 61 | 1010.6 |
| 20260509202823 | 89 | 153 | 3.5 | 4.3 | 0.00 | 0.03 | 0.03 | 64 | 1010.6 |
| 20260509202320 | 90 | 175 | 0.0 | 0.0 | 0.00 | 0.03 | 0.03 | 60 | 1010.5 |
| 20260509201819 | 90 | 175 | 1.7 | 2.6 | 0.00 | 0.03 | 0.03 | 59 | 1010.4 |
| 20260509201316 | 90 | 174 | 0.0 | 0.9 | 0.00 | 0.03 | 0.03 | 59 | 1010.3 |
| 20260509200813 | 91 | 193 | 0.9 | 1.7 | 0.00 | 0.03 | 0.03 | 58 | 1010.3 |
| 20260509200308 | 91 | 156 | 0.9 | 0.9 | 0.00 | 0.03 | 0.03 | 60 | 1010.3 |
| 20260509195804 | 91 | 174 | 0.9 | 0.9 | 0.00 | 0.03 | 0.03 | 62 | 1010.5 |
| 20260509195259 | 89 | 174 | 2.6 | 2.6 | 0.00 | 0.03 | 0.03 | 61 | 1010.4 |
| 20260509194759 | 88 | 173 | 0.0 | 0.0 | 0.00 | 0.03 | 0.03 | 65 | 1010.5 |
| 20260509194255 | 89 | 173 | 0.0 | 0.0 | 0.00 | 0.03 | 0.03 | 62 | 1010.6 |
| 20260509193752 | 91 | 173 | 0.0 | 0.0 | 0.00 | 0.03 | 0.03 | 63 | 1010.4 |
| 20260509193247 | 90 | 174 | 0.0 | 0.9 | 0.00 | 0.03 | 0.03 | 59 | 1010.8 |
| 20260509192743 | 90 | 159 | 0.0 | 0.0 | 0.00 | 0.03 | 0.03 | 60 | 1010.9 |
| 20260509192244 | 92 | 190 | 0.0 | 0.9 | 0.00 | 0.03 | 0.03 | 59 | 1011.0 |
| 20260509191740 | 91 | 164 | 0.0 | 0.0 | 0.00 | 0.03 | 0.03 | 63 | 1010.6 |
| 20260509191236 | 90 | 179 | 0.0 | 0.0 | 0.00 | 0.03 | 0.03 | 61 | 1011.2 |
| 20260509190732 | 90 | 178 | 0.0 | 0.0 | 0.00 | 0.03 | 0.03 | 62 | 1011.0 |
| 20260509190229 | 90 | 174 | 0.9 | 0.9 | 0.00 | 0.03 | 0.03 | 63 | 1011.0 |
| 20260509185727 | 90 | 162 | 0.0 | 0.0 | 0.00 | 0.03 | 0.03 | 63 | 1011.0 |
| 20260509185223 | 91 | 179 | 0.0 | 0.0 | 0.00 | 0.03 | 0.03 | 64 | 1011.1 |
| 20260509184721 | 90 | 170 | 3.5 | 5.2 | 0.00 | 0.03 | 0.03 | 62 | 1011.2 |
| 20260509184218 | 89 | 164 | 0.0 | 0.0 | 0.00 | 0.03 | 0.03 | 65 | 1011.3 |
| 20260509183714 | 89 | 168 | 0.0 | 0.9 | 0.00 | 0.03 | 0.03 | 67 | 1011.6 |
| 20260509183209 | 89 | 164 | 1.7 | 2.6 | 0.00 | 0.03 | 0.03 | 68 | 1011.6 |
| 20260509182705 | 88 | 164 | 2.6 | 2.6 | 0.00 | 0.03 | 0.03 | 68 | 1011.7 |
| 20260509182203 | 88 | 164 | 0.0 | 0.0 | 0.00 | 0.03 | 0.03 | 70 | 1011.9 |
| 20260509181700 | 87 | 169 | 0.0 | 0.0 | 0.00 | 0.03 | 0.03 | 69 | 1011.8 |
| 20260509181158 | 87 | 170 | 0.0 | 0.0 | 0.00 | 0.03 | 0.03 | 73 | 1011.8 |
| 20260509180654 | 87 | 169 | 0.0 | 0.0 | 0.00 | 0.03 | 0.03 | 73 | 1011.7 |
| 20260509180150 | 87 | 168 | 0.0 | 0.0 | 0.00 | 0.03 | 0.03 | 71 | 1011.8 |
| 20260509175646 | 86 | 170 | 0.0 | 0.0 | 0.00 | 0.03 | 0.03 | 73 | 1011.8 |
| 20260509175143 | 86 | 171 | 0.0 | 0.0 | 0.00 | 0.03 | 0.03 | 73 | 1012.0 |
| 20260509174639 | 87 | 164 | 0.0 | 0.0 | 0.00 | 0.03 | 0.03 | 73 | 1012.3 |
| 20260509174134 | 88 | 164 | 0.0 | 0.0 | 0.00 | 0.03 | 0.03 | 71 | 1012.2 |
| 20260509173630 | 87 | 164 | 0.0 | 0.0 | 0.00 | 0.03 | 0.03 | 73 | 1012.3 |
| 20260509173126 | 87 | 173 | 0.9 | 0.9 | 0.00 | 0.03 | 0.03 | 73 | 1012.4 |
| 20260509172623 | 87 | 170 | 0.9 | 0.9 | 0.00 | 0.03 | 0.03 | 72 | 1012.3 |
| 20260509172119 | 86 | 171 | 0.0 | 0.0 | 0.00 | 0.03 | 0.03 | 74 | 1012.3 |
| 20260509171615 | 86 | 172 | 0.0 | 0.0 | 0.00 | 0.03 | 0.03 | 74 | 1012.1 |
| 20260509171111 | 86 | 170 | 0.9 | 0.9 | 0.00 | 0.03 | 0.03 | 74 | 1012.2 |
| 20260509170608 | 85 | 161 | 1.7 | 1.7 | 0.00 | 0.03 | 0.03 | 74 | 1012.5 |
| 20260509170104 | 84 | 164 | 0.9 | 1.7 | 0.00 | 0.03 | 0.03 | 76 | 1012.2 |
| 20260509165602 | 82 | 134 | 0.0 | 0.0 | 0.00 | 0.03 | 0.03 | 80 | 1012.6 |
| 20260509165058 | 82 | 137 | 0.0 | 0.0 | 0.00 | 0.03 | 0.03 | 82 | 1012.7 |
| 20260509164554 | 83 | 158 | 0.9 | 0.9 | 0.00 | 0.03 | 0.03 | 79 | 1012.7 |
| 20260509164049 | 84 | 163 | 0.9 | 0.9 | 0.00 | 0.03 | 0.03 | 78 | 1012.4 |
| 20260509163548 | 83 | 156 | 0.0 | 0.0 | 0.00 | 0.03 | 0.03 | 79 | 1012.6 |
| 20260509163043 | 82 | 156 | 1.7 | 2.6 | 0.00 | 0.03 | 0.03 | 81 | 1012.5 |
| 20260509162541 | 82 | 149 | 0.0 | 0.0 | 0.00 | 0.03 | 0.03 | 83 | 1012.2 |
| 20260509162036 | 82 | 141 | 0.0 | 0.0 | 0.00 | 0.03 | 0.03 | 85 | 1012.3 |
| 20260509161527 | 80 | 159 | 1.7 | 1.7 | 0.00 | 0.03 | 0.03 | 84 | 1012.4 |
| 20260509161022 | 79 | 173 | 2.6 | 2.6 | 0.00 | 0.03 | 0.03 | 91 | 1012.4 |
| 20260509160518 | 78 | 153 | 2.6 | 2.6 | 0.00 | 0.03 | 0.03 | 95 | 1012.4 |
| 20260509160014 | 76 | 155 | 1.7 | 1.7 | 0.00 | 0.03 | 0.03 | 97 | 1012.4 |
| 20260509155510 | 76 | 136 | 0.0 | 0.0 | 0.00 | 0.03 | 0.03 | 99 | 1012.3 |
| 20260509155006 | 76 | 152 | 0.0 | 0.0 | 0.00 | 0.03 | 0.03 | 99 | 1012.7 |
| 20260509154503 | 76 | 144 | 0.0 | 0.0 | 0.00 | 0.03 | 0.03 | 99 | 1012.4 |
| 20260509154000 | 75 | 162 | 0.0 | 0.0 | 0.00 | 0.03 | 0.03 | 99 | 1012.7 |
| 20260509153457 | 75 | 162 | 0.0 | 0.0 | 0.00 | 0.03 | 0.03 | 99 | 1012.6 |
| 20260509152954 | 75 | 144 | 0.0 | 0.9 | 0.00 | 0.03 | 0.03 | 99 | 1012.8 |
| 20260509152449 | 75 | 144 | 2.6 | 2.6 | 0.00 | 0.03 | 0.03 | 99 | 1012.5 |
| 20260509151946 | 74 | 142 | 0.9 | 0.9 | 0.00 | 0.03 | 0.03 | 99 | 1012.6 |
| 20260509151442 | 75 | 168 | 1.7 | 1.7 | 0.00 | 0.03 | 0.03 | 99 | 1012.7 |
| 20260509150940 | 74 | 144 | 0.9 | 0.9 | 0.00 | 0.03 | 0.03 | 99 | 1012.7 |
| 20260509150438 | 73 | 151 | 0.0 | 0.9 | 0.00 | 0.03 | 0.03 | 99 | 1013.0 |
| 20260509145937 | 73 | 150 | 0.9 | 0.9 | 0.00 | 0.03 | 0.03 | 99 | 1012.7 |
| 20260509145437 | 73 | 142 | 1.7 | 1.7 | 0.00 | 0.03 | 0.03 | 99 | 1012.6 |
| 20260509144932 | 73 | 158 | 0.9 | 1.7 | 0.00 | 0.03 | 0.03 | 99 | 1012.4 |
| 20260509144430 | 73 | 147 | 0.0 | 0.0 | 0.00 | 0.03 | 0.03 | 99 | 1012.4 |
| 20260509143927 | 73 | 149 | 0.9 | 0.9 | 0.00 | 0.03 | 0.03 | 99 | 1012.4 |
| 20260509143424 | 73 | 144 | 0.0 | 0.0 | 0.00 | 0.03 | 0.03 | 99 | 1012.4 |
| 20260509142920 | 72 | 145 | 0.0 | 0.0 | 0.00 | 0.03 | 0.03 | 99 | 1012.1 |
| 20260509142417 | 72 | 146 | 0.9 | 0.9 | 0.00 | 0.03 | 0.03 | 99 | 1012.0 |
| 20260509141912 | 72 | 165 | 0.9 | 0.9 | 0.00 | 0.03 | 0.03 | 99 | 1012.1 |
| 20260509141410 | 72 | 143 | 0.0 | 0.0 | 0.00 | 0.03 | 0.03 | 99 | 1012.0 |
| 20260509140906 | 72 | 142 | 0.0 | 0.0 | 0.00 | 0.03 | 0.03 | 99 | 1012.1 |
| 20260509140403 | 72 | 147 | 0.0 | 0.0 | 0.00 | 0.03 | 0.03 | 99 | 1012.1 |
| 20260509135901 | 72 | 149 | 0.0 | 0.0 | 0.00 | 0.03 | 0.03 | 99 | 1012.2 |
| 20260509135358 | 72 | 141 | 0.0 | 0.0 | 0.00 | 0.03 | 0.03 | 99 | 1012.2 |
| 20260509134855 | 72 | 141 | 0.0 | 0.0 | 0.00 | 0.03 | 0.03 | 99 | 1012.4 |
| 20260509134353 | 72 | 141 | 0.0 | 0.0 | 0.00 | 0.03 | 0.03 | 99 | 1012.4 |
| 20260509133849 | 72 | 141 | 0.0 | 0.0 | 0.00 | 0.03 | 0.03 | 99 | 1012.5 |
| 20260509133346 | 72 | 141 | 0.0 | 0.0 | 0.00 | 0.03 | 0.03 | 99 | 1012.4 |
| 20260509132845 | 72 | 141 | 0.0 | 0.0 | 0.00 | 0.03 | 0.03 | 99 | 1012.4 |
| 20260509132343 | 72 | 146 | 0.0 | 0.0 | 0.00 | 0.03 | 0.03 | 99 | 1012.8 |
| 20260509131839 | 72 | 146 | 0.0 | 0.0 | 0.00 | 0.03 | 0.03 | 99 | 1012.5 |
| 20260509131336 | 72 | 146 | 0.0 | 0.0 | 0.00 | 0.03 | 0.03 | 99 | 1012.3 |
| 20260509130833 | 72 | 146 | 0.0 | 0.0 | 0.00 | 0.03 | 0.03 | 99 | 1012.2 |
| 20260509130328 | 72 | 146 | 0.0 | 0.0 | 0.00 | 0.03 | 0.03 | 99 | 1012.3 |
| 20260509125825 | 72 | 146 | 0.0 | 0.0 | 0.00 | 0.03 | 0.03 | 99 | 1012.0 |
| 20260509125322 | 72 | 147 | 0.0 | 0.0 | 0.00 | 0.03 | 0.03 | 99 | 1012.0 |
| 20260509124818 | 72 | 139 | 0.0 | 0.0 | 0.00 | 0.03 | 0.03 | 99 | 1011.8 |
| 20260509124315 | 72 | 134 | 0.0 | 0.0 | 0.00 | 0.03 | 0.03 | 99 | 1011.7 |
| 20260509123813 | 72 | 136 | 0.0 | 0.0 | 0.00 | 0.03 | 0.03 | 99 | 1011.8 |
| 20260509123310 | 72 | 132 | 0.0 | 0.0 | 0.00 | 0.03 | 0.03 | 99 | 1011.7 |
| 20260509122806 | 72 | 135 | 0.0 | 0.0 | 0.00 | 0.03 | 0.03 | 99 | 1011.5 |
| 20260509122305 | 72 | 135 | 0.0 | 0.0 | 0.00 | 0.03 | 0.03 | 99 | 1011.8 |
| 20260509121759 | 72 | 135 | 0.0 | 0.0 | 0.00 | 0.03 | 0.03 | 99 | 1011.8 |
| 20260509121257 | 72 | 136 | 0.0 | 0.0 | 0.00 | 0.03 | 0.03 | 99 | 1012.3 |
| 20260509120755 | 72 | 136 | 0.0 | 0.0 | 0.00 | 0.03 | 0.03 | 99 | 1012.2 |
| 20260509120252 | 72 | 134 | 0.0 | 0.0 | 0.00 | 0.03 | 0.03 | 99 | 1012.0 |
| 20260509115751 | 72 | 137 | 0.0 | 0.0 | 0.00 | 0.03 | 0.03 | 99 | 1012.0 |
| 20260509115247 | 72 | 138 | 0.0 | 0.0 | 0.00 | 0.03 | 0.03 | 99 | 1012.2 |
| 20260509114745 | 72 | 139 | 0.0 | 0.0 | 0.00 | 0.03 | 0.03 | 99 | 1012.0 |
| 20260509114244 | 72 | 140 | 0.0 | 0.0 | 0.00 | 0.03 | 0.03 | 99 | 1012.0 |
| 20260509113742 | 72 | 139 | 0.0 | 0.0 | 0.00 | 0.03 | 0.03 | 99 | 1012.0 |
| 20260509113239 | 72 | 135 | 0.0 | 0.0 | 0.00 | 0.03 | 0.03 | 99 | 1012.2 |
| 20260509112736 | 72 | 137 | 0.0 | 0.0 | 0.00 | 0.03 | 0.03 | 99 | 1012.5 |
| 20260509112233 | 72 | 137 | 0.0 | 0.0 | 0.00 | 0.03 | 0.03 | 99 | 1012.6 |
| 20260509111730 | 72 | 130 | 0.0 | 0.0 | 0.00 | 0.03 | 0.03 | 99 | 1012.7 |
| 20260509111226 | 72 | 138 | 0.0 | 0.0 | 0.00 | 0.03 | 0.03 | 99 | 1012.9 |
| 20260509110724 | 72 | 135 | 0.0 | 0.0 | 0.00 | 0.03 | 0.03 | 99 | 1012.8 |
| 20260509110220 | 72 | 134 | 0.0 | 0.0 | 0.00 | 0.03 | 0.03 | 99 | 1012.9 |
| 20260509105719 | 72 | 136 | 0.0 | 0.0 | 0.00 | 0.03 | 0.03 | 99 | 1012.7 |
| 20260509105216 | 72 | 132 | 0.0 | 0.0 | 0.00 | 0.03 | 0.03 | 99 | 1012.6 |
| 20260509104713 | 72 | 127 | 0.0 | 0.0 | 0.00 | 0.03 | 0.03 | 99 | 1012.8 |
| 20260509104210 | 72 | 132 | 0.0 | 0.0 | 0.00 | 0.03 | 0.03 | 99 | 1012.5 |
| 20260509103708 | 72 | 132 | 0.0 | 0.0 | 0.00 | 0.03 | 0.03 | 99 | 1012.6 |
| 20260509103205 | 72 | 135 | 0.0 | 0.0 | 0.00 | 0.03 | 0.03 | 99 | 1012.6 |
| 20260509102703 | 72 | 139 | 0.0 | 0.0 | 0.00 | 0.03 | 0.03 | 99 | 1012.5 |
| 20260509102200 | 72 | 142 | 0.0 | 0.0 | 0.00 | 0.03 | 0.03 | 99 | 1012.5 |
| 20260509101656 | 72 | 142 | 0.0 | 0.0 | 0.00 | 0.03 | 0.03 | 99 | 1012.2 |
| 20260509101153 | 72 | 143 | 0.0 | 0.0 | 0.00 | 0.03 | 0.03 | 99 | 1012.1 |
| 20260509100650 | 72 | 145 | 0.0 | 0.0 | 0.00 | 0.03 | 0.03 | 99 | 1011.8 |
| 20260509100147 | 72 | 146 | 0.0 | 0.0 | 0.00 | 0.03 | 0.03 | 99 | 1011.7 |
| 20260509095644 | 72 | 137 | 0.0 | 0.0 | 0.00 | 0.03 | 0.03 | 99 | 1011.8 |
| 20260509095141 | 72 | 137 | 0.0 | 0.0 | 0.00 | 0.03 | 0.03 | 99 | 1011.3 |
| 20260509094637 | 72 | 137 | 0.0 | 0.0 | 0.00 | 0.03 | 0.03 | 99 | 1011.4 |
| 20260509094135 | 72 | 137 | 0.0 | 0.0 | 0.00 | 0.03 | 0.03 | 99 | 1011.6 |
| 20260509093633 | 72 | 137 | 0.0 | 0.0 | 0.00 | 0.03 | 0.03 | 99 | 1011.5 |
| 20260509093130 | 72 | 137 | 0.0 | 0.0 | 0.05 | 0.03 | 0.03 | 99 | 1011.6 |
| 20260509092628 | 72 | 137 | 0.0 | 0.0 | 0.05 | 0.03 | 0.03 | 99 | 1011.5 |
| 20260509092126 | 72 | 139 | 0.0 | 0.0 | 0.00 | 0.02 | 0.02 | 99 | 1011.4 |
| 20260509091624 | 72 | 139 | 0.0 | 0.0 | 0.00 | 0.02 | 0.02 | 99 | 1011.4 |
| 20260509091120 | 72 | 139 | 0.0 | 0.0 | 0.00 | 0.02 | 0.02 | 99 | 1011.3 |
| 20260509090617 | 72 | 138 | 0.0 | 0.0 | 0.00 | 0.02 | 0.02 | 99 | 1011.1 |
| 20260509090115 | 72 | 141 | 0.0 | 0.0 | 0.07 | 0.02 | 0.02 | 99 | 1011.1 |
| 20260509085612 | 72 | 141 | 0.0 | 0.0 | 0.07 | 0.02 | 0.02 | 99 | 1011.5 |
| 20260509085108 | 72 | 141 | 0.0 | 0.0 | 0.05 | 0.01 | 0.01 | 99 | 1011.6 |
| 20260509084605 | 72 | 135 | 0.0 | 0.0 | 0.05 | 0.01 | 0.01 | 99 | 1011.5 |
| 20260509084057 | 72 | 130 | 0.0 | 0.0 | 0.00 | 0.00 | 0.00 | 99 | 1011.7 |
| 20260509083554 | 72 | 135 | 0.0 | 0.0 | 0.00 | 0.00 | 0.00 | 99 | 1011.6 |
| 20260509083050 | 72 | 135 | 0.0 | 0.0 | 0.00 | 0.00 | 0.00 | 99 | 1011.8 |
| 20260509082548 | 72 | 135 | 0.0 | 0.0 | 0.00 | 0.00 | 0.00 | 99 | 1011.8 |
| 20260509082044 | 72 | 135 | 0.0 | 0.0 | 0.00 | 0.00 | 0.00 | 99 | 1011.7 |
| 20260509081542 | 72 | 135 | 0.0 | 0.0 | 0.00 | 0.00 | 0.00 | 99 | 1011.5 |
| 20260509081038 | 72 | 142 | 0.0 | 0.0 | 0.00 | 0.00 | 0.00 | 99 | 1011.8 |
| 20260509080537 | 72 | 140 | 0.0 | 0.0 | 0.00 | 0.00 | 0.00 | 99 | 1011.7 |
| 20260509080035 | 72 | 142 | 0.0 | 0.0 | 0.00 | 0.00 | 0.00 | 99 | 1011.7 |
| 20260509075531 | 72 | 147 | 0.0 | 0.0 | 0.00 | 0.00 | 0.00 | 99 | 1011.5 |
| 20260509075030 | 72 | 141 | 0.9 | 0.9 | 0.00 | 0.00 | 0.00 | 99 | 1011.7 |
| 20260509074526 | 72 | 144 | 0.0 | 0.9 | 0.00 | 0.00 | 0.00 | 99 | 1011.6 |
| 20260509074023 | 72 | 140 | 0.0 | 0.0 | 0.00 | 0.00 | 0.00 | 99 | 1011.4 |
| 20260509073519 | 72 | 152 | 1.7 | 1.7 | 0.00 | 0.00 | 0.00 | 99 | 1011.2 |
| 20260509073016 | 72 | 141 | 0.0 | 0.0 | 0.00 | 0.00 | 0.00 | 99 | 1011.4 |